This is the latest recevied weather packets stored in our database for station/object W4MLN-1. If no packets are shown the sender has not sent any weather packets the latest 10 day(s).
| Time | Temp. | Humidity | Pressure | Rain* | Wind** | Luminosity | Snow |
|---|---|---|---|---|---|---|---|
| 1777734478 | 9.44° C | 47% | 1013.6 hPa | 0 mm | - | 551 W/m² | - |
| 1777733875 | 9.44° C | 43% | 1013.5 hPa | 0 mm | - | 449 W/m² | - |
| 1777733272 | 8.89° C | 44% | 1013.4 hPa | 0 mm | - | 357 W/m² | - |
| 1777732672 | 8.89° C | 44% | 1013.4 hPa | 0 mm | - | 343 W/m² | - |
| 1777732373 | 8.89° C | 45% | 1013.4 hPa | 0 mm | - | 322 W/m² | - |
| 1777732074 | 8.89° C | 43% | 1013.3 hPa | 0 mm | - | 295 W/m² | - |
| 1777731773 | 8.89° C | 44% | 1013.3 hPa | 0 mm | - | 324 W/m² | - |
| 1777731473 | 8.89° C | 45% | 1013.2 hPa | 0 mm | - | 430 W/m² | - |
| 1777731173 | 8.89° C | 46% | 1013.2 hPa | 0 mm | - | 378 W/m² | - |
| 1777730873 | 8.89° C | 47% | 1013.2 hPa | 0 mm | - | 288 W/m² | - |
| 1777730570 | 8.33° C | 46% | 1013.3 hPa | 0 mm | - | 316 W/m² | - |
| 1777730256 | 8.33° C | 52% | 1013.4 hPa | 0 mm | - | 355 W/m² | - |
| 1777729041 | 8.33° C | 51% | 1013.3 hPa | 0 mm | - | 236 W/m² | - |
| 1777728731 | 8.33° C | 51% | 1013.6 hPa | 0 mm | - | 277 W/m² | - |
| 1777728425 | 7.78° C | 51% | 1013.6 hPa | 0 mm | - | 277 W/m² | - |
| 1777728126 | 7.78° C | 52% | 1013.6 hPa | 0 mm | - | 253 W/m² | - |
| 1777727825 | 7.78° C | 52% | 1013.5 hPa | 0 mm | - | 201 W/m² | - |
| 1777727526 | 7.78° C | 53% | 1013.5 hPa | 0 mm | - | 190 W/m² | - |
| 1777727226 | 7.78° C | 52% | 1013.5 hPa | 0 mm | - | 199 W/m² | - |
| 1777726926 | 7.78° C | 55% | 1013.7 hPa | 0 mm | - | 215 W/m² | - |
| 1777726624 | 7.78° C | 55% | 1013.6 hPa | 0 mm | - | 186 W/m² | - |
| 1777726012 | 7.78° C | 55% | 1013.6 hPa | 0 mm | - | 176 W/m² | - |
| 1777725412 | 7.22° C | 61% | 1013.4 hPa | 0 mm | - | 170 W/m² | - |
| 1777724796 | 7.22° C | 63% | 1013.2 hPa | 0 mm | - | 101 W/m² | - |
| 1777724197 | 6.67° C | 69% | 1013.2 hPa | 0 mm | - | 79 W/m² | - |
* Rain latest hour (hover to see other rain measurements)
** Current wind speed in m/s (hover to see current wind gust speed)